User: anonymous   Login
Location: Caltech
(34.1382°N, 118.1253°W)
Time: 13:50:28
(UTC-07:00)
Language:

Iridium 75 - Orbit

View from above orbital plane
View from above orbital plane
View from above satellite
View from above satellite

Ground track
Ground track

The orbit data is extracted from the following two-line orbital elements,

1 25346U 98032E   17202.10842875 -.00000014 +00000-0 -12216-4 0  9992
2 25346 086.3964 209.9341 0002197 086.0537 274.0909 14.34216662004239
Epoch (UTC): 21 July 2017 02:36:08
Eccentricity: 0.0002197
inclination: 86.3964°
perigee height: 776 km
apogee height: 779 km
right ascension of ascending node: 209.9341°
argument of perigee: 86.0537°
revolutions per day: 14.34216662
mean anomaly at epoch: 274.0909°
orbit number at epoch: 423

The dashed part of the orbit path shows where the satellite is in the earth's shadow,  

DLR